Regional Weather Roundup
Issued by NWS

Home | Current Version | Previous Version | Graphics & Text | Print | Product List | Glossary On
Versions: 1 2 3 4 5 6 7 8 9 10 11 12 13 14 15 16 17 18 19 20 21 22 23 24 25 26 27
000
ASUS45 KBOU 241507
RWRCO

WEATHER ROUNDUP FOR COLORADO
NATIONAL WEATHER SERVICE DENVER/BOULDER CO
900 AM MDT TUE MAY 24 2016

NOTE: "FAIR" INDICATES FEW OR NO CLOUDS BELOW 12000 FEET WITH NO
SIGNIFICANT WEATHER AND/OR OBSTRUCTIONS TO VISIBILITY.

COZ001>005-013-030-031-241600-
...NORTHWEST COLORADO...

CITY           SKY/WX    TMP DP  RH WIND       PRES   REMARKS
CRAIG          FAIR      50  36  58 CALM      29.93F
HAYDEN         FAIR      52  28  40 E12       29.93F
MEEKER         FAIR      55  32  41 CALM      29.93F
MOUNT WERNER   NOT AVBL
STEAMBOAT SPGS FAIR      49  31  51 CALM      29.96S
WALDEN         FAIR      45  28  53 CALM      30.04S
$$

COZ006>008-011-241600-
...WEST CENTRAL VALLEYS...

CITY           SKY/WX    TMP DP  RH WIND       PRES   REMARKS
GRAND JUNCTION FAIR      58  25  28 SE10      29.89R
MONTROSE       FAIR      64  19  17 E7        29.96F
EAGLE          SUNNY     48  25  40 CALM      30.02F
RIFLE          FAIR      55  28  35 VRB3      29.92S
DELTA          FAIR      61  27  26 NE3       29.94S
NUCLA          FAIR      63  21  20 SW14      30.00S
$$

COZ017>023-064>068-241600-
...SOUTHWEST COLORADO...

CITY           SKY/WX    TMP DP  RH WIND       PRES   REMARKS
DURANGO        FAIR      53  29  39 CALM      30.06S
CORTEZ         FAIR      61  22  22 SW6       30.00S
PAGOSA SPRINGS FAIR      53  17  24 S5        30.11R
TELLURIDE      FAIR      50  12  21 CALM      30.12S
WOLF CREEK PAS   N/A    N/A N/A N/A SW24      30.25R
$$

COZ009-010-012-014-032>034-037-058>063-241600-
...CENTRAL COLORADO...

CITY           SKY/WX    TMP DP  RH WIND       PRES   REMARKS
ASPEN          FAIR      56  25  30 E3        30.00F
BUENA VISTA    FAIR      50  20  30 CALM      30.05F
COPPER MTN     NOT AVBL
BERTHOUD PASS  FAIR      34  27  75 SE12      30.25R WCI  25
COTTONWOOD PAS FAIR      50  18  27 E9        30.13R
GUNNISON       FAIR      45  23  42 CALM      30.09S
KREMMLING      FAIR      46  28  49 CALM      30.04F
LEADVILLE      FAIR      48  12  23 S13       30.10F
MONARCH PASS   FAIR      36  12  38 SW28      30.31S
SALIDA         FAIR      50  23  35 CALM      30.11F
SUNLIGHT       FAIR      43  19  39 CALM      30.17R
WILKERSON PASS FAIR      43  18  36 S8        30.24S
$$

COZ069>075-241600-
...SAN LUIS VALLEY/SANGRE DE CRISTO MOUNTAINS...

CITY           SKY/WX    TMP DP  RH WIND       PRES   REMARKS
ALAMOSA        FAIR      59  20  22 S13       30.06F
LA VETA PASS   FAIR      48  18  29 S12G21    30.18R
SAGUACHE       FAIR      50  25  37 S9        30.09S
$$

COZ035-036-038>040-241600-
...NORTHERN COLORADO FRONT RANGE...

CITY           SKY/WX    TMP DP  RH WIND       PRES   REMARKS
DENVER INTL AP FAIR      60  45  57 SE18G24   29.98S
DMNS CITY PARK   N/A     58  42  55 E13       29.99S
AURORA         MOSUNNY   58  44  61 SE16G23   29.99S
FRONT RANGE AP MOSUNNY   57  43  58 SE20G30   29.99S
ERIE MUNI ARPT FAIR      56  47  70 CALM      29.99R
BOULDER MUN AP FAIR      55  43  62 CALM      29.98S
CENTENNIAL     PTSUNNY   56  43  61 S6        30.00R
BROOMFIELD     MOSUNNY   55  45  67 CALM      30.00R
FORT COLLINS   FAIR      54  45  71 S9        30.00R
LONGMONT       FAIR      59  43  56 E6        30.00S
$$

COZ041-046-047-076>085-087-088-241600-
...PIKES PEAK/PALMER DIVIDE AND SOUTHERN FOOTHILLS...

CITY           SKY/WX    TMP DP  RH WIND       PRES   REMARKS
COLO. SPRINGS  PTSUNNY   57  41  55 E14       30.03R
A. F. ACADEMY  CLOUDY    55  45  67 SE9       30.03R
SCHRIEVER AFB  NOT AVBL
ELLICOTT       NOT AVBL
FALCON         CLOUDY    55  42  63 E9        30.07R
FORT CARSON    PTSUNNY   57  44  60 VRB2      30.01R
LIMON          FAIR      61  46  57 E21G29    29.98R
MONUMENT HILL  PTSUNNY   54  43  66 SE13      30.07R
TRINIDAD       FAIR      59  46  62 E7        30.00R
$$

COZ042>045-048>051-090-091-241600-
...NORTHEAST COLORADO...

CITY           SKY/WX    TMP DP  RH WIND       PRES   REMARKS
GREELEY ARPT   CLOUDY    55  45  67 CALM      29.99R
AKRON          FAIR      59  46  62 SE16      29.96F
BURLINGTON     CLOUDY    62  53  72 E18       29.95R
WRAY           FAIR      63  50  63 E6        29.96R
STERLING       PTSUNNY   59  50  72 S3        29.94F
HOLYOKE        FAIR      64  54  68 S3        29.95R
FORT MORGAN    PTSUNNY   58  43  58 CALM      29.98S
$$

COZ086-089-092>099-241600-
...SOUTHEAST COLORADO...

CITY           SKY/WX    TMP DP  RH WIND       PRES   REMARKS
PUEBLO         CLOUDY    62  45  53 CALM      29.97R
LA JUNTA       FAIR      64  45  49 CALM      29.93R
LAMAR            N/A     63  56  78 CALM      29.88S
SPRINGFIELD      N/A     62  54  74 N12       29.93R
$$




USA.gov is the U.S. government's official web portal to all federal, state and local government web resources and services.